Location: ?????????
(54.7630°N, 39.4991°E)
Time: 08:21:40
(UTC+00:00)

Cosmos 2237 Rocket - Pass Details

Date: 14 April 2026
Orbit: 833 x 850 km, 71.0° (Epoch: 9 May)

Event Time Altitude Azimuth Distance (km) Brightness Sun altitude
Rises 18:14:31 0° 193° (SSW) 3,393 5.1 -14.6°
Reaches altitude 10° 18:17:00 10° 188° (S) 2,465 4.3 -14.9°
Maximum altitude 18:22:28 52° 114° (ESE) 1,053 2.3 -15.4°
Drops below altitude 10° 18:27:59 10° 39° (NE) 2,488 4.7 -16.0°
Sets 18:30:30 0° 35° (NE) 3,428 5.5 -16.3°
